Hourly Data Report for December 16, 2012

BAGOTVILLE A
QUEBEC

48°20'00.000" N
71°00'00.000" W
159.10 m
7060400
71727
YBG

Download Data

Hourly Data (December 2012)
Hourly Data Report for December 16, 2012
TIME
LST
Temp Definition
°C
Dew Point Definition
°C
Rel Hum Definition
%
Precip. Amount Definition
mm

Wind Dir Definition
10's deg

Wind Spd Definition
km/h
Visibility Definition
km
Stn Press Definition
kPa
Hmdx Definition


Wind Chill Definition


Weather Definition


00:00 -21.3 -22.9 87     0 24.1 101.13     Mainly Clear
01:00 -21.0 -21.8 93     0 24.1 101.09     Mainly Clear
02:00 -24.3 -25.9 87   23 4 24.1 101.09   -28 Mainly Clear
03:00 -23.4 -25.0 87   17 4 24.1 101.09   -27 Mainly Clear
04:00 -23.4 -25.0 87   21 4 24.1 101.07   -27 Mainly Clear
05:00 -25.9 -26.5 95   15 4 24.1 101.07   -30 Mainly Clear
06:00 -26.0 -26.6 95   21 4 24.1 101.07   -30 Mainly Clear
07:00 -25.1 -26.7 86   18 6 40.2 101.06   -31 Mainly Clear
08:00 -24.6 -28.3 71   20 6 40.2 101.00   -30 Mainly Clear
09:00 -23.6 -26.2 79   19 4 40.2 100.97   -27 Mostly Cloudy
10:00 -19.7 -22.7 77   9 6 40.2 100.91   -25 Mainly Clear
11:00 -17.7 -20.4 79   9 6 40.2 100.83   -22 Mainly Clear
12:00 -15.9 -19.5 74     0 40.2 100.74     Mainly Clear
13:00 -14.6 -19.1 69   7 9 40.2 100.62   -20 Mainly Clear
14:00 -13.6 -16.7 77   8 6 40.2 100.51   -18 Mainly Clear
15:00 -13.4 -16.5 77   27 4 40.2 100.48   -16 Mainly Clear
16:00 -15.0 -17.8 79   5 6 40.2 100.41   -19 Mainly Clear
17:00 -15.5 -17.9 82     0 24.1 100.38     Mainly Clear
18:00 -13.6 -17.3 74   11 22 24.1 100.37   -23 Mainly Clear
19:00 -12.5 -16.4 73   11 20 24.1 100.36   -21 Mainly Clear
20:00 -12.2 -15.5 76   12 24 24.1 100.34   -21 Mainly Clear
21:00 -11.6 -15.8 71   12 24 24.1 100.32   -21 Mainly Clear
22:00 -11.5 -15.2 74   11 26 24.1 100.30   -21 Mainly Clear
23:00 -11.0 -14.5 75   10 32 24.1 100.32   -21 Mainly Clear

Notes on Data Quality.

Legend

  • E = Estimated
  • M = Missing
  • NA = Not Available*
  • [empty] = Indicates an unobserved value
Date modified: